Year,Month,Day,Hour,Minute,Value (Times are PST for temperature in C)
2016,08,15,00,00,22.20
2016,08,15,00,01,22.20
2016,08,15,00,02,22.20
2016,08,15,00,03,22.30
2016,08,15,00,04,22.30
2016,08,15,00,05,22.30
2016,08,15,00,06,22.40
2016,08,15,00,07,22.40
2016,08,15,00,08,22.40
2016,08,15,00,09,22.40
2016,08,15,00,10,22.40
2016,08,15,00,11,22.40
2016,08,15,00,12,22.40
2016,08,15,00,13,22.40
2016,08,15,00,14,22.40
2016,08,15,00,15,22.40
2016,08,15,00,16,22.40
2016,08,15,00,17,22.40
2016,08,15,00,18,22.30
2016,08,15,00,19,22.30
2016,08,15,00,20,22.30
2016,08,15,00,21,22.30
2016,08,15,00,22,22.20
2016,08,15,00,23,22.20
2016,08,15,00,24,22.20
2016,08,15,00,25,22.20
2016,08,15,00,26,22.20
2016,08,15,00,27,22.20
2016,08,15,00,28,22.10
2016,08,15,00,29,22.10
2016,08,15,00,30,22.10
2016,08,15,00,31,22.00
2016,08,15,00,32,22.00
2016,08,15,00,33,21.90
2016,08,15,00,34,21.90
2016,08,15,00,35,21.90
2016,08,15,00,36,21.80
2016,08,15,00,37,21.80
2016,08,15,00,38,21.80
2016,08,15,00,39,21.80
2016,08,15,00,40,21.80
2016,08,15,00,41,21.80
2016,08,15,00,42,21.70
2016,08,15,00,43,21.70
2016,08,15,00,44,21.70
2016,08,15,00,45,21.70
2016,08,15,00,46,21.60
2016,08,15,00,47,21.60
2016,08,15,00,48,21.50
2016,08,15,00,49,21.50
2016,08,15,00,50,21.50
2016,08,15,00,51,21.50
2016,08,15,00,52,21.50
2016,08,15,00,53,21.50
2016,08,15,00,54,21.50
2016,08,15,00,55,21.50
2016,08,15,00,56,21.50
2016,08,15,00,57,21.40
2016,08,15,00,58,21.40
2016,08,15,00,59,21.40
2016,08,15,01,00,21.40
2016,08,15,01,01,21.40
2016,08,15,01,02,21.40
2016,08,15,01,03,21.40
2016,08,15,01,04,21.40
2016,08,15,01,05,21.40
2016,08,15,01,06,21.40
2016,08,15,01,07,21.40
2016,08,15,01,08,21.40
2016,08,15,01,09,21.40
2016,08,15,01,10,21.40
2016,08,15,01,11,21.40
2016,08,15,01,12,21.40
2016,08,15,01,13,21.40
2016,08,15,01,14,21.30
2016,08,15,01,15,21.30
2016,08,15,01,16,21.30
2016,08,15,01,17,21.30
2016,08,15,01,18,21.30
2016,08,15,01,19,21.30
2016,08,15,01,20,21.30
2016,08,15,01,21,21.30
2016,08,15,01,22,21.30
2016,08,15,01,23,21.20
2016,08,15,01,24,21.20
2016,08,15,01,25,21.20
2016,08,15,01,26,21.20
2016,08,15,01,27,21.20
2016,08,15,01,28,21.20
2016,08,15,01,29,21.20
2016,08,15,01,30,21.20
2016,08,15,01,31,21.20
2016,08,15,01,32,21.20
2016,08,15,01,33,21.20
2016,08,15,01,34,21.20
2016,08,15,01,35,21.20
2016,08,15,01,36,21.20
2016,08,15,01,37,21.20
2016,08,15,01,38,21.20
2016,08,15,01,39,21.20
2016,08,15,01,40,21.20
2016,08,15,01,41,21.20
2016,08,15,01,42,21.10
2016,08,15,01,43,21.10
2016,08,15,01,44,21.10
2016,08,15,01,45,21.10
2016,08,15,01,46,21.10
2016,08,15,01,47,21.10
2016,08,15,01,48,21.10
2016,08,15,01,49,21.00
2016,08,15,01,50,21.00
2016,08,15,01,51,21.00
2016,08,15,01,52,21.00
2016,08,15,01,53,21.00
2016,08,15,01,54,20.90
2016,08,15,01,55,20.90
2016,08,15,01,56,20.90
2016,08,15,01,57,20.90
2016,08,15,01,58,20.90
2016,08,15,01,59,20.90
2016,08,15,02,00,20.90
2016,08,15,02,01,20.90
2016,08,15,02,02,20.90
2016,08,15,02,03,20.80
2016,08,15,02,04,20.80
2016,08,15,02,05,20.80
2016,08,15,02,06,20.80
2016,08,15,02,07,20.80
2016,08,15,02,08,20.80
2016,08,15,02,09,20.80
2016,08,15,02,10,20.80
2016,08,15,02,11,20.80
2016,08,15,02,12,20.80
2016,08,15,02,13,20.70
2016,08,15,02,14,20.70
2016,08,15,02,15,20.70
2016,08,15,02,16,20.70
2016,08,15,02,17,20.70
2016,08,15,02,18,20.70
2016,08,15,02,19,20.70
2016,08,15,02,20,20.70
2016,08,15,02,21,20.80
2016,08,15,02,22,20.80
2016,08,15,02,23,20.80
2016,08,15,02,24,20.80
2016,08,15,02,25,20.80
2016,08,15,02,26,20.80
2016,08,15,02,27,20.80
2016,08,15,02,28,20.80
2016,08,15,02,29,20.80
2016,08,15,02,30,20.70
2016,08,15,02,31,20.70
2016,08,15,02,32,20.70
2016,08,15,02,33,20.70
2016,08,15,02,34,20.70
2016,08,15,02,35,20.70
2016,08,15,02,36,20.70
2016,08,15,02,37,20.70
2016,08,15,02,38,20.70
2016,08,15,02,39,20.70
2016,08,15,02,40,20.70
2016,08,15,02,41,20.70
2016,08,15,02,42,20.70
2016,08,15,02,43,20.60
2016,08,15,02,44,20.60
2016,08,15,02,45,20.60
2016,08,15,02,46,20.60
2016,08,15,02,47,20.60
2016,08,15,02,48,20.60
2016,08,15,02,49,20.60
2016,08,15,02,50,20.60
2016,08,15,02,51,20.50
2016,08,15,02,52,20.50
2016,08,15,02,53,20.50
2016,08,15,02,54,20.50
2016,08,15,02,55,20.50
2016,08,15,02,56,20.50
2016,08,15,02,57,20.50
2016,08,15,02,58,20.40
2016,08,15,02,59,20.40
2016,08,15,03,00,20.40
2016,08,15,03,01,20.40
2016,08,15,03,02,20.40
2016,08,15,03,03,20.30
2016,08,15,03,04,20.30
2016,08,15,03,05,20.30
2016,08,15,03,06,20.30
2016,08,15,03,07,20.30
2016,08,15,03,08,20.30
2016,08,15,03,09,20.30
2016,08,15,03,10,20.30
2016,08,15,03,11,20.30
2016,08,15,03,12,20.30
2016,08,15,03,13,20.30
2016,08,15,03,14,20.30
2016,08,15,03,15,20.40
2016,08,15,03,16,20.40
2016,08,15,03,17,20.40
2016,08,15,03,18,20.40
2016,08,15,03,19,20.40
2016,08,15,03,20,20.40
2016,08,15,03,21,20.40
2016,08,15,03,22,20.40
2016,08,15,03,23,20.40
2016,08,15,03,24,20.40
2016,08,15,03,25,20.40
2016,08,15,03,26,20.40
2016,08,15,03,27,20.40
2016,08,15,03,28,20.30
2016,08,15,03,29,20.30
2016,08,15,03,30,20.30
2016,08,15,03,31,20.30
2016,08,15,03,32,20.30
2016,08,15,03,33,20.30
2016,08,15,03,34,20.30
2016,08,15,03,35,20.30
2016,08,15,03,36,20.30
2016,08,15,03,37,20.30
2016,08,15,03,38,20.30
2016,08,15,03,39,20.30
2016,08,15,03,40,20.30
2016,08,15,03,41,20.30
2016,08,15,03,42,20.30
2016,08,15,03,43,20.30
2016,08,15,03,44,20.30
2016,08,15,03,45,20.30
2016,08,15,03,46,20.30
2016,08,15,03,47,20.30
2016,08,15,03,48,20.30
2016,08,15,03,49,20.30
2016,08,15,03,50,20.30
2016,08,15,03,51,20.30
2016,08,15,03,52,20.30
2016,08,15,03,53,20.30
2016,08,15,03,54,20.20
2016,08,15,03,55,20.20
2016,08,15,03,56,20.20
2016,08,15,03,57,20.20
2016,08,15,03,58,20.20
2016,08,15,03,59,20.10
2016,08,15,04,00,20.10
2016,08,15,04,01,20.10
2016,08,15,04,02,20.10
2016,08,15,04,03,20.00
2016,08,15,04,04,20.00
2016,08,15,04,05,19.90
2016,08,15,04,06,19.90
2016,08,15,04,07,19.90
2016,08,15,04,08,19.90
2016,08,15,04,09,19.90
2016,08,15,04,10,19.80
2016,08,15,04,11,19.80
2016,08,15,04,12,19.80
2016,08,15,04,13,19.80
2016,08,15,04,14,19.80
2016,08,15,04,15,19.80
2016,08,15,04,16,19.80
2016,08,15,04,17,19.70
2016,08,15,04,18,19.70
2016,08,15,04,19,19.60
2016,08,15,04,20,19.60
2016,08,15,04,21,19.50
2016,08,15,04,22,19.50
2016,08,15,04,23,19.40
2016,08,15,04,24,19.30
2016,08,15,04,25,19.30
2016,08,15,04,26,19.30
2016,08,15,04,27,19.30
2016,08,15,04,28,19.40
2016,08,15,04,29,19.40
2016,08,15,04,30,19.40
2016,08,15,04,31,19.50
2016,08,15,04,32,19.50
2016,08,15,04,33,19.50
2016,08,15,04,34,19.50
2016,08,15,04,35,19.50
2016,08,15,04,36,19.60
2016,08,15,04,37,19.60
2016,08,15,04,38,19.60
2016,08,15,04,39,19.60
2016,08,15,04,40,19.60
2016,08,15,04,41,19.60
2016,08,15,04,42,19.60
2016,08,15,04,43,19.60
2016,08,15,04,44,19.60
2016,08,15,04,45,19.60
2016,08,15,04,46,19.60
2016,08,15,04,47,19.60
2016,08,15,04,48,19.60
2016,08,15,04,49,19.60
2016,08,15,04,50,19.60
2016,08,15,04,51,19.60
2016,08,15,04,52,19.60
2016,08,15,04,53,19.70
2016,08,15,04,54,19.70
2016,08,15,04,55,19.70
2016,08,15,04,56,19.80
2016,08,15,04,57,19.80
2016,08,15,04,58,19.80
2016,08,15,04,59,19.80
2016,08,15,05,00,19.80
2016,08,15,05,01,19.80
2016,08,15,05,02,19.90
2016,08,15,05,03,19.90
2016,08,15,05,04,19.80
2016,08,15,05,05,19.80
2016,08,15,05,06,19.80
2016,08,15,05,07,19.70
2016,08,15,05,08,19.70
2016,08,15,05,09,19.70
2016,08,15,05,10,19.60
2016,08,15,05,11,19.60
2016,08,15,05,12,19.60
2016,08,15,05,13,19.50
2016,08,15,05,14,19.50
2016,08,15,05,15,19.40
2016,08,15,05,16,19.40
2016,08,15,05,17,19.30
2016,08,15,05,18,19.30
2016,08,15,05,19,19.30
2016,08,15,05,20,19.30
2016,08,15,05,21,19.20
2016,08,15,05,22,19.20
2016,08,15,05,23,19.20
2016,08,15,05,24,19.20
2016,08,15,05,25,19.20
2016,08,15,05,26,19.20
2016,08,15,05,27,19.20
2016,08,15,05,28,19.20
2016,08,15,05,29,19.20
2016,08,15,05,30,19.20
2016,08,15,05,31,19.20
2016,08,15,05,32,19.20
2016,08,15,05,33,19.20
2016,08,15,05,34,19.20
2016,08,15,05,35,19.20
2016,08,15,05,36,19.20
2016,08,15,05,37,19.20
2016,08,15,05,38,19.20
2016,08,15,05,39,19.20
2016,08,15,05,40,19.20
2016,08,15,05,41,19.20
2016,08,15,05,42,19.20
2016,08,15,05,43,19.20
2016,08,15,05,44,19.20
2016,08,15,05,45,19.20
2016,08,15,05,46,19.20
2016,08,15,05,47,19.20
2016,08,15,05,48,19.20
2016,08,15,05,49,19.20
2016,08,15,05,50,19.20
2016,08,15,05,51,19.10
2016,08,15,05,52,19.10
2016,08,15,05,53,19.10
2016,08,15,05,54,19.10
2016,08,15,05,55,19.00
2016,08,15,05,56,19.00
2016,08,15,05,57,18.90
2016,08,15,05,58,18.90
2016,08,15,05,59,18.90
2016,08,15,06,00,18.80
2016,08,15,06,01,18.80
2016,08,15,06,02,18.80
2016,08,15,06,03,18.70
2016,08,15,06,04,18.70
2016,08,15,06,05,18.70
2016,08,15,06,06,18.70
2016,08,15,06,07,18.70
2016,08,15,06,08,18.60
2016,08,15,06,09,18.60
2016,08,15,06,10,18.60
2016,08,15,06,11,18.60
2016,08,15,06,12,18.60
2016,08,15,06,13,18.60
2016,08,15,06,14,18.50
2016,08,15,06,15,18.50
2016,08,15,06,16,18.50
2016,08,15,06,17,18.50
2016,08,15,06,18,18.50
2016,08,15,06,19,18.40
2016,08,15,06,20,18.50
2016,08,15,06,21,18.50
2016,08,15,06,22,18.50
2016,08,15,06,23,18.50
2016,08,15,06,24,18.60
2016,08,15,06,25,18.60
2016,08,15,06,26,18.60
2016,08,15,06,27,18.60
2016,08,15,06,28,18.60
2016,08,15,06,29,18.60
2016,08,15,06,30,18.60
2016,08,15,06,31,18.60
2016,08,15,06,32,18.60
2016,08,15,06,33,18.60
2016,08,15,06,34,18.60
2016,08,15,06,35,18.60
2016,08,15,06,36,18.60
2016,08,15,06,37,18.60
2016,08,15,06,38,18.60
2016,08,15,06,39,18.70
2016,08,15,06,40,18.70
2016,08,15,06,41,18.70
2016,08,15,06,42,18.70
2016,08,15,06,43,18.70
2016,08,15,06,44,18.70
2016,08,15,06,45,18.70
2016,08,15,06,46,18.80
2016,08,15,06,47,18.80
2016,08,15,06,48,18.80
2016,08,15,06,49,18.80
2016,08,15,06,50,18.80
2016,08,15,06,51,18.80
2016,08,15,06,52,18.80
2016,08,15,06,53,18.80
2016,08,15,06,54,18.80
2016,08,15,06,55,18.80
2016,08,15,06,56,18.80
2016,08,15,06,57,18.80
2016,08,15,06,58,18.80
2016,08,15,06,59,18.80
2016,08,15,07,00,18.80
2016,08,15,07,01,18.80
2016,08,15,07,02,18.80
2016,08,15,07,03,18.80
2016,08,15,07,04,18.80
2016,08,15,07,05,18.80
2016,08,15,07,06,18.80
2016,08,15,07,07,18.80
2016,08,15,07,08,18.80
2016,08,15,07,09,18.80
2016,08,15,07,10,18.80
2016,08,15,07,11,18.80
2016,08,15,07,12,18.80
2016,08,15,07,13,18.80
2016,08,15,07,14,18.80
2016,08,15,07,15,18.80
2016,08,15,07,16,18.80
2016,08,15,07,17,18.80
2016,08,15,07,18,18.80
2016,08,15,07,19,18.80
2016,08,15,07,20,18.90
2016,08,15,07,21,18.90
2016,08,15,07,22,18.90
2016,08,15,07,23,18.90
2016,08,15,07,24,18.90
2016,08,15,07,25,18.90
2016,08,15,07,26,19.00
2016,08,15,07,27,19.00
2016,08,15,07,28,19.00
2016,08,15,07,29,19.10
2016,08,15,07,30,19.10
2016,08,15,07,31,19.10
2016,08,15,07,32,19.10
2016,08,15,07,33,19.10
2016,08,15,07,34,19.10
2016,08,15,07,35,19.10
2016,08,15,07,36,19.10
2016,08,15,07,37,19.10
2016,08,15,07,38,19.10
2016,08,15,07,39,19.10
2016,08,15,07,40,19.10
2016,08,15,07,41,19.10
2016,08,15,07,42,19.10
2016,08,15,07,43,19.10
2016,08,15,07,44,19.10
2016,08,15,07,45,19.20
2016,08,15,07,46,19.20
2016,08,15,07,47,19.20
2016,08,15,07,48,19.20
2016,08,15,07,49,19.20
2016,08,15,07,50,19.30
2016,08,15,07,51,19.30
2016,08,15,07,52,19.30
2016,08,15,07,53,19.40
2016,08,15,07,54,19.40
2016,08,15,07,55,19.50
2016,08,15,07,56,19.50
2016,08,15,07,57,19.60
2016,08,15,07,58,19.60
2016,08,15,07,59,19.70
2016,08,15,08,00,19.70
2016,08,15,08,01,19.80
2016,08,15,08,02,19.80
2016,08,15,08,03,19.80
2016,08,15,08,04,19.90
2016,08,15,08,05,19.90
2016,08,15,08,06,20.00
2016,08,15,08,07,20.00
2016,08,15,08,08,20.10
2016,08,15,08,09,20.10
2016,08,15,08,10,20.20
2016,08,15,08,11,20.20
2016,08,15,08,12,20.20
2016,08,15,08,13,20.10
2016,08,15,08,14,20.10
2016,08,15,08,15,20.10
2016,08,15,08,16,20.10
2016,08,15,08,17,20.10
2016,08,15,08,18,20.10
2016,08,15,08,19,20.10
2016,08,15,08,20,20.10
2016,08,15,08,21,20.10
2016,08,15,08,22,20.10
2016,08,15,08,23,20.10
2016,08,15,08,24,20.10
2016,08,15,08,25,20.10
2016,08,15,08,26,20.10
2016,08,15,08,27,20.00
2016,08,15,08,28,20.00
2016,08,15,08,29,20.00
2016,08,15,08,30,20.00
2016,08,15,08,31,20.00
2016,08,15,08,32,20.00
2016,08,15,08,33,20.00
2016,08,15,08,34,20.10
2016,08,15,08,35,20.10
2016,08,15,08,36,20.20
2016,08,15,08,37,20.20
2016,08,15,08,38,20.30
2016,08,15,08,39,20.30
2016,08,15,08,40,20.30
2016,08,15,08,41,20.30
2016,08,15,08,42,20.30
2016,08,15,08,43,20.40
2016,08,15,08,44,20.40
2016,08,15,08,45,20.40
2016,08,15,08,46,20.40
2016,08,15,08,47,20.40
2016,08,15,08,48,20.50
2016,08,15,08,49,20.50
2016,08,15,08,50,20.50
2016,08,15,08,51,20.60
2016,08,15,08,52,20.60
2016,08,15,08,53,20.70
2016,08,15,08,54,20.70
2016,08,15,08,55,20.80
2016,08,15,08,56,20.80
2016,08,15,08,57,20.80
2016,08,15,08,58,20.90
2016,08,15,08,59,20.90
2016,08,15,09,00,20.90
2016,08,15,09,01,20.90
2016,08,15,09,02,20.90
2016,08,15,09,03,21.00
2016,08,15,09,04,21.00
2016,08,15,09,05,21.10
2016,08,15,09,06,21.10
2016,08,15,09,07,21.10
2016,08,15,09,08,21.20
2016,08,15,09,09,21.30
2016,08,15,09,10,21.30
2016,08,15,09,11,21.30
2016,08,15,09,12,21.30
2016,08,15,09,13,21.30
2016,08,15,09,14,21.30
2016,08,15,09,15,21.30
2016,08,15,09,16,21.30
2016,08,15,09,17,21.30
2016,08,15,09,18,21.30
2016,08,15,09,19,21.30
2016,08,15,09,20,21.30
2016,08,15,09,21,21.30
2016,08,15,09,22,21.40
2016,08,15,09,23,21.40
2016,08,15,09,24,21.50
2016,08,15,09,25,21.50
2016,08,15,09,26,21.60
2016,08,15,09,27,21.60
2016,08,15,09,28,21.60
2016,08,15,09,29,21.60
2016,08,15,09,30,21.60
2016,08,15,09,31,21.60
2016,08,15,09,32,21.70
2016,08,15,09,33,21.70
2016,08,15,09,34,21.70
2016,08,15,09,35,21.70
2016,08,15,09,36,21.70
2016,08,15,09,37,21.80
2016,08,15,09,38,21.80
2016,08,15,09,39,21.80
2016,08,15,09,40,21.80
2016,08,15,09,41,21.80
2016,08,15,09,42,21.80
2016,08,15,09,43,21.80
2016,08,15,09,44,21.80
2016,08,15,09,45,21.80
2016,08,15,09,46,21.90
2016,08,15,09,47,21.90
2016,08,15,09,48,21.90
2016,08,15,09,49,21.80
2016,08,15,09,50,21.80
2016,08,15,09,51,21.70
2016,08,15,09,52,21.70
2016,08,15,09,53,21.70
2016,08,15,09,54,21.70
2016,08,15,09,55,21.70
2016,08,15,09,56,21.70
2016,08,15,09,57,21.60
2016,08,15,09,58,21.60
2016,08,15,09,59,21.60
2016,08,15,10,00,21.60
2016,08,15,10,01,21.60
2016,08,15,10,02,21.60
2016,08,15,10,03,21.60
2016,08,15,10,04,21.60
2016,08,15,10,05,21.50
2016,08,15,10,06,21.50
2016,08,15,10,07,21.40
2016,08,15,10,08,21.40
2016,08,15,10,09,21.40
2016,08,15,10,10,21.40
2016,08,15,10,11,21.40
2016,08,15,10,12,21.40
2016,08,15,10,13,21.30
2016,08,15,10,14,21.30
2016,08,15,10,15,21.30
2016,08,15,10,16,21.30
2016,08,15,10,17,21.30
2016,08,15,10,18,21.30
2016,08,15,10,19,21.40
2016,08,15,10,20,21.50
2016,08,15,10,21,21.60
2016,08,15,10,22,21.70
2016,08,15,10,23,21.70
2016,08,15,10,24,21.80
2016,08,15,10,25,21.80
2016,08,15,10,26,21.80
2016,08,15,10,27,21.80
2016,08,15,10,28,22.00
2016,08,15,10,29,22.00
2016,08,15,10,30,22.10
2016,08,15,10,31,22.10
2016,08,15,10,32,22.10
2016,08,15,10,33,22.20
2016,08,15,10,34,22.20
2016,08,15,10,35,22.10
2016,08,15,10,36,22.00
2016,08,15,10,37,21.90
2016,08,15,10,38,21.90
2016,08,15,10,39,21.90
2016,08,15,10,40,21.90
2016,08,15,10,41,22.00
2016,08,15,10,42,22.10
2016,08,15,10,43,22.10
2016,08,15,10,44,22.10
2016,08,15,10,45,22.00
2016,08,15,10,46,22.00
2016,08,15,10,47,22.00
2016,08,15,10,48,22.00
2016,08,15,10,49,21.90
2016,08,15,10,50,22.00
2016,08,15,10,51,22.00
2016,08,15,10,52,22.10
2016,08,15,10,53,22.10
2016,08,15,10,54,22.10
2016,08,15,10,55,22.10
2016,08,15,10,56,22.20
2016,08,15,10,57,22.20
2016,08,15,10,58,22.20
2016,08,15,10,59,22.20
2016,08,15,11,00,22.20
2016,08,15,11,01,22.30
2016,08,15,11,02,22.30
2016,08,15,11,03,22.40
2016,08,15,11,04,22.50
2016,08,15,11,05,22.60
2016,08,15,11,06,22.60
2016,08,15,11,07,22.60
2016,08,15,11,08,22.60
2016,08,15,11,09,22.50
2016,08,15,11,10,22.50
2016,08,15,11,11,22.50
2016,08,15,11,12,22.50
2016,08,15,11,13,22.50
2016,08,15,11,14,22.60
2016,08,15,11,15,22.60
2016,08,15,11,16,22.70
2016,08,15,11,17,22.80
2016,08,15,11,18,22.80
2016,08,15,11,19,22.80
2016,08,15,11,20,22.90
2016,08,15,11,21,22.80
2016,08,15,11,22,22.90
2016,08,15,11,23,22.90
2016,08,15,11,24,23.00
2016,08,15,11,25,23.00
2016,08,15,11,26,22.90
2016,08,15,11,27,22.90
2016,08,15,11,28,22.80
2016,08,15,11,29,22.80
2016,08,15,11,30,22.80
2016,08,15,11,31,22.80
2016,08,15,11,32,22.70
2016,08,15,11,33,22.70
2016,08,15,11,34,22.70
2016,08,15,11,35,22.80
2016,08,15,11,36,22.80
2016,08,15,11,37,22.80
2016,08,15,11,38,22.80
2016,08,15,11,39,22.90
2016,08,15,11,40,22.90
2016,08,15,11,41,23.00
2016,08,15,11,42,23.10
2016,08,15,11,43,23.10
2016,08,15,11,44,23.10
2016,08,15,11,45,23.10
2016,08,15,11,46,23.10
2016,08,15,11,47,23.20
2016,08,15,11,48,23.20
2016,08,15,11,49,23.20
2016,08,15,11,50,23.20
2016,08,15,11,51,23.20
2016,08,15,11,52,23.30
2016,08,15,11,53,23.30
2016,08,15,11,54,23.30
2016,08,15,11,55,23.30
2016,08,15,11,56,23.30
2016,08,15,11,57,23.20
2016,08,15,11,58,23.20
2016,08,15,11,59,23.20
2016,08,15,12,00,23.20
2016,08,15,12,01,23.20
2016,08,15,12,02,23.20
2016,08,15,12,03,23.20
2016,08,15,12,04,23.30
2016,08,15,12,05,23.30
2016,08,15,12,06,23.20
2016,08,15,12,07,23.20
2016,08,15,12,08,23.20
2016,08,15,12,09,23.20
2016,08,15,12,10,23.30
2016,08,15,12,11,23.40
2016,08,15,12,12,23.50
2016,08,15,12,13,23.50
2016,08,15,12,14,23.50
2016,08,15,12,15,23.50
2016,08,15,12,16,23.50
2016,08,15,12,17,23.60
2016,08,15,12,18,23.60
2016,08,15,12,19,23.60
2016,08,15,12,20,23.70
2016,08,15,12,21,23.70
2016,08,15,12,22,23.70
2016,08,15,12,23,23.70
2016,08,15,12,24,23.70
2016,08,15,12,25,23.70
2016,08,15,12,26,23.70
2016,08,15,12,27,23.60
2016,08,15,12,28,23.60
2016,08,15,12,29,23.60
2016,08,15,12,30,23.60
2016,08,15,12,31,23.70
2016,08,15,12,32,23.70
2016,08,15,12,33,23.80
2016,08,15,12,34,23.90
2016,08,15,12,35,23.90
2016,08,15,12,36,23.90
2016,08,15,12,37,23.90
2016,08,15,12,38,24.00
2016,08,15,12,39,23.90
2016,08,15,12,40,23.90
2016,08,15,12,41,24.00
2016,08,15,12,42,24.00
2016,08,15,12,43,24.10
2016,08,15,12,44,24.10
2016,08,15,12,45,24.10
2016,08,15,12,46,24.10
2016,08,15,12,47,24.00
2016,08,15,12,48,23.90
2016,08,15,12,49,23.80
2016,08,15,12,50,23.80
2016,08,15,12,51,23.80
2016,08,15,12,52,23.80
2016,08,15,12,53,23.70
2016,08,15,12,54,23.70
2016,08,15,12,55,23.70
2016,08,15,12,56,23.80
2016,08,15,12,57,23.80
2016,08,15,12,58,23.80
2016,08,15,12,59,23.90
2016,08,15,13,00,23.90
2016,08,15,13,01,24.00
2016,08,15,13,02,24.10
2016,08,15,13,03,24.10
2016,08,15,13,04,24.20
2016,08,15,13,05,24.20
2016,08,15,13,06,24.20
2016,08,15,13,07,24.20
2016,08,15,13,08,24.10
2016,08,15,13,09,24.10
2016,08,15,13,10,24.10
2016,08,15,13,11,24.10
2016,08,15,13,12,24.10
2016,08,15,13,13,24.10
2016,08,15,13,14,24.10
2016,08,15,13,15,24.20
2016,08,15,13,16,24.20
2016,08,15,13,17,24.20
2016,08,15,13,18,24.20
2016,08,15,13,19,24.30
2016,08,15,13,20,24.30
2016,08,15,13,21,24.30
2016,08,15,13,22,24.20
2016,08,15,13,23,24.20
2016,08,15,13,24,24.20
2016,08,15,13,25,24.30
2016,08,15,13,26,24.40
2016,08,15,13,27,24.40
2016,08,15,13,28,24.40
2016,08,15,13,29,24.40
2016,08,15,13,30,24.50
2016,08,15,13,31,24.50
2016,08,15,13,32,24.60
2016,08,15,13,33,24.60
2016,08,15,13,34,24.60
2016,08,15,13,35,24.60
2016,08,15,13,36,24.60
2016,08,15,13,37,24.70
2016,08,15,13,38,24.70
2016,08,15,13,39,24.60
2016,08,15,13,40,24.60
2016,08,15,13,41,24.60
2016,08,15,13,42,24.60
2016,08,15,13,43,24.70
2016,08,15,13,44,24.70
2016,08,15,13,45,24.80
2016,08,15,13,46,24.90
2016,08,15,13,47,24.90
2016,08,15,13,48,24.90
2016,08,15,13,49,24.80
2016,08,15,13,50,24.80
2016,08,15,13,51,24.80
2016,08,15,13,52,24.80
2016,08,15,13,53,24.80
2016,08,15,13,54,24.80
2016,08,15,13,55,24.80
2016,08,15,13,56,24.80
2016,08,15,13,57,24.80
2016,08,15,13,58,24.90
2016,08,15,13,59,24.90
2016,08,15,14,00,25.00
2016,08,15,14,01,25.00
2016,08,15,14,02,25.00
2016,08,15,14,03,25.00
2016,08,15,14,04,25.00
2016,08,15,14,05,24.90
2016,08,15,14,06,24.90
2016,08,15,14,07,24.90
2016,08,15,14,08,24.80
2016,08,15,14,09,24.80
2016,08,15,14,10,24.80
2016,08,15,14,11,24.80
2016,08,15,14,12,24.80
2016,08,15,14,13,24.80
2016,08,15,14,14,24.80
2016,08,15,14,15,24.80
2016,08,15,14,16,24.80
2016,08,15,14,17,24.90
2016,08,15,14,18,25.00
2016,08,15,14,19,25.00
2016,08,15,14,20,25.10
2016,08,15,14,21,25.20
2016,08,15,14,22,25.30
2016,08,15,14,23,25.40
2016,08,15,14,24,25.50
2016,08,15,14,25,25.50
2016,08,15,14,26,25.60
2016,08,15,14,27,25.60
2016,08,15,14,28,25.60
2016,08,15,14,29,25.60
2016,08,15,14,30,25.50
2016,08,15,14,31,25.50
2016,08,15,14,32,25.40
2016,08,15,14,33,25.40
2016,08,15,14,34,25.30
2016,08,15,14,35,25.30
2016,08,15,14,36,25.30
2016,08,15,14,37,25.20
2016,08,15,14,38,25.30
2016,08,15,14,39,25.30
2016,08,15,14,40,25.30
2016,08,15,14,41,25.30
2016,08,15,14,42,25.40
2016,08,15,14,43,25.40
2016,08,15,14,44,25.40
2016,08,15,14,45,25.40
2016,08,15,14,46,25.50
2016,08,15,14,47,25.50
2016,08,15,14,48,25.50
2016,08,15,14,49,25.60
2016,08,15,14,50,25.60
2016,08,15,14,51,25.70
2016,08,15,14,52,25.70
2016,08,15,14,53,25.80
2016,08,15,14,54,25.80
2016,08,15,14,55,25.90
2016,08,15,14,56,25.90
2016,08,15,14,57,26.00
2016,08,15,14,58,26.00
2016,08,15,14,59,26.00
2016,08,15,15,00,26.00
2016,08,15,15,01,26.00
2016,08,15,15,02,26.10
2016,08,15,15,03,26.10
2016,08,15,15,04,26.10
2016,08,15,15,05,26.20
2016,08,15,15,06,26.30
2016,08,15,15,07,26.30
2016,08,15,15,08,26.30
2016,08,15,15,09,26.30
2016,08,15,15,10,26.30
2016,08,15,15,11,26.30
2016,08,15,15,12,26.30
2016,08,15,15,13,26.30
2016,08,15,15,14,26.20
2016,08,15,15,15,26.20
2016,08,15,15,16,26.30
2016,08,15,15,17,26.40
2016,08,15,15,18,26.40
2016,08,15,15,19,26.50
2016,08,15,15,20,26.50
2016,08,15,15,21,26.60
2016,08,15,15,22,26.60
2016,08,15,15,23,26.60
2016,08,15,15,24,26.70
2016,08,15,15,25,26.70
2016,08,15,15,26,26.70
2016,08,15,15,27,26.70
2016,08,15,15,28,26.80
2016,08,15,15,29,26.80
2016,08,15,15,30,26.70
2016,08,15,15,31,26.70
2016,08,15,15,32,26.80
2016,08,15,15,33,26.80
2016,08,15,15,34,26.90
2016,08,15,15,35,26.90
2016,08,15,15,36,27.00
2016,08,15,15,37,27.00
2016,08,15,15,38,27.10
2016,08,15,15,39,27.20
2016,08,15,15,40,27.30
2016,08,15,15,41,27.30
2016,08,15,15,42,27.40
2016,08,15,15,43,27.50
2016,08,15,15,44,27.60
2016,08,15,15,45,27.70
2016,08,15,15,46,27.70
2016,08,15,15,47,27.60
2016,08,15,15,48,27.60
2016,08,15,15,49,27.60
2016,08,15,15,50,27.50
2016,08,15,15,51,27.40
2016,08,15,15,52,27.30
2016,08,15,15,53,27.30
2016,08,15,15,54,27.20
2016,08,15,15,55,27.20
2016,08,15,15,56,27.20
2016,08,15,15,57,27.20
2016,08,15,15,58,27.20
2016,08,15,15,59,27.20
2016,08,15,16,00,27.10
2016,08,15,16,01,27.10
2016,08,15,16,02,27.10
2016,08,15,16,03,27.10
2016,08,15,16,04,27.00
2016,08,15,16,05,27.00
2016,08,15,16,06,27.00
2016,08,15,16,07,27.00
2016,08,15,16,08,27.00
2016,08,15,16,09,27.00
2016,08,15,16,10,26.90
2016,08,15,16,11,26.90
2016,08,15,16,12,26.90
2016,08,15,16,13,26.90
2016,08,15,16,14,26.90
2016,08,15,16,15,26.90
2016,08,15,16,16,26.90
2016,08,15,16,17,26.90
2016,08,15,16,18,26.90
2016,08,15,16,19,27.00
2016,08,15,16,20,27.00
2016,08,15,16,21,27.00
2016,08,15,16,22,27.00
2016,08,15,16,23,27.00
2016,08,15,16,24,27.10
2016,08,15,16,25,27.10
2016,08,15,16,26,27.00
2016,08,15,16,27,26.90
2016,08,15,16,28,26.90
2016,08,15,16,29,26.90
2016,08,15,16,30,26.90
2016,08,15,16,31,26.90
2016,08,15,16,32,26.90
2016,08,15,16,33,27.00
2016,08,15,16,34,27.00
2016,08,15,16,35,26.90
2016,08,15,16,36,26.90
2016,08,15,16,37,26.90
2016,08,15,16,38,26.90
2016,08,15,16,39,26.90
2016,08,15,16,40,27.00
2016,08,15,16,41,26.90
2016,08,15,16,42,26.90
2016,08,15,16,43,26.90
2016,08,15,16,44,26.90
2016,08,15,16,45,26.90
2016,08,15,16,46,26.90
2016,08,15,16,47,26.80
2016,08,15,16,48,26.80
2016,08,15,16,49,26.80
2016,08,15,16,50,26.80
2016,08,15,16,51,26.80
2016,08,15,16,52,26.80
2016,08,15,16,53,26.80
2016,08,15,16,54,26.80
2016,08,15,16,55,26.80
2016,08,15,16,56,26.80
2016,08,15,16,57,26.90
2016,08,15,16,58,26.90
2016,08,15,16,59,26.90
2016,08,15,17,00,26.90
2016,08,15,17,01,26.90
2016,08,15,17,02,27.00
2016,08,15,17,03,27.10
2016,08,15,17,04,27.20
2016,08,15,17,05,27.30
2016,08,15,17,06,27.30
2016,08,15,17,07,27.40
2016,08,15,17,08,27.50
2016,08,15,17,09,27.60
2016,08,15,17,10,27.60
2016,08,15,17,11,27.60
2016,08,15,17,12,27.60
2016,08,15,17,13,27.60
2016,08,15,17,14,27.60
2016,08,15,17,15,27.60
2016,08,15,17,16,27.60
2016,08,15,17,17,27.60
2016,08,15,17,18,27.70
2016,08,15,17,19,27.70